Date String (YYYY-MM-DD hh:mm:ss) UTC,Instrument flags,absolute air pressure of the measurement (hPa),sample flow rate (lpm),inlet stack bypass flow (lpm),air temperature of the measurement (°C),ambient temperature measured by the external sensor (°C),aerosol sample conditioner tube jacket temperature (°C),OPC LED temperature (°C),internal box temperature (°C),relative humidity of the measurement (%),span deviation,mass concentration of particles derived from Lorenz-Mie calculation of OPC scattering (μg/m³),mass concentration of particles derived from Lorenz-Mie calculation of OPC scattering (μg/m³),mass concentration of particles derived from Lorenz-Mie calculation of OPC scattering (μg/m³)
DateTimeUTC,F1_M11,P_M11,Q1_M11,Q2_M11,T1_M11,T2_M11,T3_M11,T4_M11,T5_M11,U1_M11,ZSPAN_M11,X0_M11,X2_M11,X1_M11
2023-08-02 17:00:00,SystemResetWarning,0835.5,5.00,000.00,030.6,027.9,000.0,038.5,031.4,31.3,0000.0,0008.34,0003.59,0003.10
2023-08-02 17:01:00,SystemResetWarning,0835.5,5.01,000.00,030.6,028.1,000.0,038.6,031.4,32.3,0000.0,0007.49,0003.57,0003.08
2023-08-02 17:02:00,SystemResetWarning,0835.6,5.00,000.00,030.7,028.3,000.0,038.6,031.5,31.2,0000.0,0007.51,0003.55,0003.08
2023-08-02 17:03:00,SystemResetWarning,0835.6,4.99,000.00,030.7,028.4,000.0,038.6,031.5,31.8,0000.0,0007.92,0003.54,0003.06
2023-08-02 17:04:00,SystemResetWarning,0835.6,4.99,000.00,030.7,028.3,000.0,038.6,031.6,31.5,0000.0,0007.92,0003.54,0003.04
2023-08-02 17:05:00,SystemResetWarning,0835.5,4.99,000.00,030.7,026.9,000.0,038.6,031.3,30.9,0000.0,0007.97,0003.54,0003.03
2023-08-02 17:06:00,SystemResetWarning,0835.5,5.00,000.00,030.6,025.8,000.0,038.5,031.1,31.6,0000.0,0007.51,0003.57,0003.03
2023-08-02 17:07:00,SystemResetWarning,0835.5,5.01,000.00,030.6,025.7,000.0,038.4,031.0,31.5,0000.0,0007.44,0003.56,0003.01
2023-08-02 17:08:00,SystemResetWarning,0835.5,5.01,000.00,030.4,026.0,000.0,038.5,030.9,30.7,0000.0,0008.08,0003.55,0003.00
2023-08-02 17:09:00,SystemResetWarning,0835.6,4.99,000.00,030.4,026.4,000.0,038.5,031.0,31.6,0000.0,0008.04,0003.53,0002.97
2023-08-02 17:10:00,SystemResetWarning,0835.5,5.00,000.00,030.3,026.8,000.0,038.6,031.1,31.9,0000.0,0007.95,0003.49,0002.93
2023-08-02 17:11:00,SystemResetWarning,0835.5,5.01,000.00,030.3,027.2,000.0,038.6,031.2,32.3,0000.0,0007.85,0003.45,0002.90
2023-08-02 17:12:00,SystemResetWarning,0835.5,5.01,000.00,030.3,027.5,000.0,038.6,031.2,33.3,0000.0,0008.05,0003.43,0002.88
2023-08-02 17:13:00,SystemResetWarning,0835.5,4.99,000.00,030.3,027.7,000.0,038.6,031.3,33.1,0000.0,0007.93,0003.41,0002.86
2023-08-02 17:14:00,SystemResetWarning,0835.5,5.00,000.00,030.3,028.0,000.0,038.6,031.3,30.8,0000.0,0007.45,0003.41,0002.87
2023-08-02 17:15:00,SystemResetWarning,0835.5,5.00,000.00,030.3,028.2,000.0,038.6,031.4,32.1,0000.0,0007.35,0003.39,0002.87
2023-08-02 17:16:00,SystemResetWarning,0835.5,5.00,000.00,030.4,028.2,000.0,038.6,031.5,30.5,0000.0,0007.27,0003.37,0002.86
2023-08-02 17:17:00,SystemResetWarning,0835.5,4.98,000.00,030.4,027.2,000.0,038.5,031.4,30.8,0000.0,0007.13,0003.33,0002.83
2023-08-02 17:18:00,SystemResetWarning,0835.5,5.01,000.00,030.3,025.9,000.0,038.4,031.0,32.1,0000.0,0007.07,0003.32,0002.81
2023-08-02 17:19:00,SystemResetWarning,0835.5,5.02,000.00,030.2,025.6,000.0,038.3,030.9,31.8,0000.0,0005.73,0003.31,0002.80
2023-08-02 17:20:00,SystemResetWarning,0835.5,4.99,000.00,030.1,025.8,000.0,038.3,030.8,31.0,0000.0,0005.61,0003.28,0002.78
2023-08-02 17:21:00,SystemResetWarning,0835.5,4.99,000.00,030.0,026.2,000.0,038.4,030.8,32.5,0000.0,0005.61,0003.28,0002.78
2023-08-02 17:22:00,SystemResetWarning,0835.4,5.01,000.00,030.0,026.6,000.0,038.4,030.9,32.6,0000.0,0005.73,0003.29,0002.78
2023-08-02 17:23:00,SystemResetWarning,0835.4,5.02,000.00,030.0,027.0,000.0,038.4,031.0,33.0,0000.0,0005.27,0003.27,0002.79
2023-08-02 17:24:00,SystemResetWarning,0835.4,5.00,000.00,030.0,027.3,000.0,038.4,031.1,33.9,0000.0,0005.41,0003.28,0002.78
2023-08-02 17:25:00,SystemResetWarning,0835.3,5.00,000.00,030.0,027.6,000.0,038.4,031.2,33.1,0000.0,0005.21,0003.25,0002.75
2023-08-02 17:26:00,SystemResetWarning,0835.4,5.00,000.00,030.0,027.8,000.0,038.4,031.2,33.2,0000.0,0005.33,0003.26,0002.73
2023-08-02 17:27:00,SystemResetWarning,0835.3,5.01,000.00,030.0,028.0,000.0,038.4,031.3,31.9,0000.0,0005.21,0003.23,0002.70
2023-08-02 17:28:00,SystemResetWarning,0835.3,5.00,000.00,030.1,028.2,000.0,038.4,031.4,32.7,0000.0,0005.46,0003.20,0002.69
2023-08-02 17:29:00,SystemResetWarning,0835.3,4.99,000.00,030.1,027.6,000.0,038.3,031.3,33.9,0000.0,0005.44,0003.20,0002.68
2023-08-02 17:30:00,SystemResetWarning,0835.3,4.99,000.00,030.0,026.1,000.0,038.2,031.1,33.6,0000.0,0005.56,0003.22,0002.66
2023-08-02 17:31:00,SystemResetWarning,0835.4,5.01,000.00,030.0,025.6,000.0,038.1,030.9,34.7,0000.0,0005.51,0003.22,0002.66
2023-08-02 17:32:00,SystemResetWarning,0835.4,5.01,000.00,029.9,025.8,000.0,038.1,030.8,33.0,0000.0,0005.63,0003.24,0002.66
2023-08-02 17:33:00,SystemResetWarning,0835.4,4.99,000.00,029.8,026.2,000.0,038.1,030.8,32.2,0000.0,0005.43,0003.21,0002.65
2023-08-02 17:34:00,SystemResetWarning,0835.3,4.99,000.00,029.8,026.6,000.0,038.2,030.9,33.7,0000.0,0005.16,0003.19,0002.62
2023-08-02 17:35:00,SystemResetWarning,0835.4,5.01,000.00,029.9,027.0,000.0,038.2,031.0,33.2,0000.0,0005.00,0003.18,0002.59
2023-08-02 17:36:00,SystemResetWarning,0835.5,5.01,000.00,029.9,027.3,000.0,038.2,031.1,33.1,0000.0,0005.03,0003.16,0002.55
2023-08-02 17:37:00,SystemResetWarning,0835.5,4.99,000.00,029.9,027.6,000.0,038.2,031.1,33.2,0000.0,0004.96,0003.14,0002.53
2023-08-02 17:38:00,SystemResetWarning,0835.5,4.99,000.00,029.9,027.8,000.0,038.2,031.2,33.2,0000.0,0004.92,0003.14,0002.54
2023-08-02 17:39:00,SystemResetWarning,0835.5,5.00,000.00,029.9,028.0,000.0,038.2,031.2,33.3,0000.0,0004.60,0003.15,0002.54
2023-08-02 17:40:00,SystemResetWarning,0835.5,5.00,000.00,030.0,027.6,000.0,038.2,031.2,34.1,0000.0,0004.47,0003.14,0002.54
2023-08-02 17:41:00,SystemResetWarning,0835.5,5.00,000.00,029.9,026.1,000.0,038.0,031.0,33.3,0000.0,0004.30,0003.11,0002.55
2023-08-02 17:42:00,SystemResetWarning,0835.4,5.00,000.00,029.8,025.4,000.0,038.0,030.8,35.1,0000.0,0004.28,0003.11,0002.56
2023-08-02 17:43:00,SystemResetWarning,0835.4,5.01,000.00,029.8,025.4,000.0,038.0,030.7,32.6,0000.0,0004.11,0003.08,0002.56
2023-08-02 17:44:00,SystemResetWarning,0835.5,4.99,000.00,029.8,025.8,000.0,038.0,030.7,32.2,0000.0,0004.19,0003.11,0002.58
2023-08-02 17:45:00,SystemResetWarning,0835.4,5.02,000.00,029.8,026.2,000.0,038.0,030.8,32.0,0000.0,0004.36,0003.14,0002.61
2023-08-02 17:46:00,SystemResetWarning,0835.4,4.99,000.00,029.8,026.6,000.0,038.1,030.9,32.1,0000.0,0004.28,0003.13,0002.62
2023-08-02 17:47:00,SystemResetWarning,0835.4,4.99,000.00,029.9,027.0,000.0,038.1,030.9,33.4,0000.0,0004.44,0003.16,0002.66
2023-08-02 17:48:00,SystemResetWarning,0835.3,5.01,000.00,029.9,027.3,000.0,038.1,031.0,35.2,0000.0,0004.58,0003.18,0002.68
2023-08-02 17:49:00,SystemResetWarning,0835.4,4.99,000.00,030.0,027.6,000.0,038.1,031.1,34.5,0000.0,0004.65,0003.19,0002.69
2023-08-02 17:50:00,SystemResetWarning,0835.4,5.02,000.00,030.2,027.8,000.0,038.2,031.2,33.3,0000.0,0004.69,0003.20,0002.71
2023-08-02 17:51:00,SystemResetWarning,0835.4,5.00,000.00,030.3,028.0,000.0,038.2,031.3,32.2,0000.0,0004.84,0003.22,0002.72
2023-08-02 17:52:00,SystemResetWarning,0835.3,4.97,000.00,030.4,027.3,000.0,038.1,031.3,31.3,0000.0,0005.05,0003.25,0002.73
2023-08-02 17:53:00,SystemResetWarning,0835.3,5.01,000.00,030.3,025.9,000.0,038.1,031.0,31.6,0000.0,0005.34,0003.30,0002.76
2023-08-02 17:54:00,SystemResetWarning,0835.3,5.00,000.00,030.3,025.4,000.0,038.0,030.9,32.3,0000.0,0005.37,0003.31,0002.78
2023-08-02 17:55:00,SystemResetWarning,0835.3,5.01,000.00,030.2,025.6,000.0,038.1,030.7,31.8,0000.0,0005.85,0003.33,0002.79
2023-08-02 17:56:00,SystemResetWarning,0835.3,5.01,000.00,030.1,026.0,000.0,038.1,030.7,33.6,0000.0,0005.84,0003.33,0002.80
2023-08-02 17:57:00,SystemResetWarning,0835.3,5.00,000.00,030.1,026.4,000.0,038.2,030.8,33.6,0000.0,0006.46,0003.35,0002.83
2023-08-02 17:58:00,SystemResetWarning,0835.4,5.01,000.00,030.1,026.8,000.0,038.2,030.9,33.2,0000.0,0006.41,0003.37,0002.87
2023-08-02 17:59:00,SystemResetWarning,0835.4,4.99,000.00,030.1,027.2,000.0,038.3,031.0,33.7,0000.0,0006.37,0003.37,0002.90
